DECAYED
Showing default

FLOCK 4BE 33, 60502 (Decayed)

Orbit data source: Space-Track

FLOCK 4BE 33, 60502 was a payload satellite owned by Planet (US) in LEO that was launched on Fri, 16 Aug 2024 UTC via an FALCON 9 launch vehicle from the Air Force Western Test Range (AFWTR). Payload-class satellites include a variety of spacecraft equipped with specific instruments for various scientific and technological missions. These include communications satellites like Starlink; space stations such as the ISS; scientific satellites like the Hubble; Earth observation satellites from companies like Planet Labs, Umbra, and HawkEye 360; GPS; miniature CubeSats for education and research; and military/defense satellites.

Not visible in the next 10 days
Identifier
60502, 2024-149AL
Orbit
Decayed
Country
Flag of USUS
Related business
Manufacturer
Planet
Mission
Decayed Commercial Imaging
Bus & Motor
CUBESAT 3U, Unknown motor
Mass
5.7 kg wet, 5.7 kg dry
Launch date (UTC)
2024-08-16 (2 years ago)
Launch vehicle
FALCON 9
Launch site
Air Force Western Test Range (AFWTR)
Object type
Payload
Rocket body
Debris
Shape & HBR
Box + 2 Pan, 1.0 m
Radar Cross Section
0.072 m², Medium (>0.1 m² and < 1m²)

Expand to show TLE details & history
Last TLE update: 2 weeks ago

TLE from 2 weeks ago
0 FLOCK 4BE 33
1 60502U 24149AL  26130.19690202  .04157843  24423-5  14153-2 0  9992
2 60502  97.3612 219.1170 0013224 270.6520  89.3257 16.25335546 96838
Epoch: 2026-05-10T04:43Z
TLE epoch observation values (Epoch: 2026-05-10T04:43:32.334Z)
Latitude
0.00003°
Longitude
-79.77117°
Altitude
208.247 km
Speed
7.781 km/s
True Right ascension
14h 36m 28s
True Declination
0° 00' 00"
Sunlit
Object was in full shadow at epoch
Visualization orbit readout
Latitude
Unknown
Longitude
Unknown
Altitude
Unknown
Speed
Unknown
Apparent Right ascension
Unknown
Apparent Declination
Unknown
Sunlit
N/A
Visualization observer readout
Local Sidereal Time
14:01:28
Azimuth
Unknown
Elevation
Unknown
Doppler factor
Unknown
Orbital elements
Apogee altitude
210.631 km
Perigee altitude
193.228 km
Semi-major axis
6,580.067 km
Eccentricity
0.00132
Inclination
97.3612°
RAAN
219.117°
Arg. of periapsis
270.652°
True anomaly
89.47723°
Mean anomaly
89.3257°
Eccentric anomaly
89.40146°
Mean motion
4.06628 °/min
Orbital period
88.53 mins
BSTAR
0.0014153
Loading maneuver chart data...
Computing Atmospheric mass density...
Loading historical data...
Loading historical data...
Loading historical data...
Loading historical data...
Loading historical data...
Loading historical data...
Loading historical data...

Documentation

Showing up to 5 results
|